TimeCDT,TemperatureF,Dew PointF,Humidity,Sea Level PressureIn,VisibilityMPH,Wind Direction,Wind SpeedMPH,Gust SpeedMPH,PrecipitationIn,Events,Conditions,WindDirDegrees,DateUTC
12:54 AM,61,57,82,29.89,6,NE,2.2,,,,Overcast,50,2012-10-15 05:54:00
6:01 AM,59.0,57.2,94,30.22,7.0,NNW,4.6,-,N/A,,Overcast,340,2012-10-15 11:01:00
6:45 AM,59.0,57.2,94,29.88,7.0,NNW,4.6,-,N/A,,Overcast,330,2012-10-15 11:45:00
6:53 AM,59,56,88,29.92,6,NE,2.2,,,,Overcast,50,2012-10-15 11:53:00
7:45 AM,59.0,57.2,94,30.24,8.0,NNW,3.5,-,N/A,,Overcast,330,2012-10-15 12:45:00
8:50 AM,59.0,57.2,94,30.25,10.0,Calm,Calm,-,N/A,,Overcast,0,2012-10-15 13:50:00
9:52 AM,62.6,57.2,82,29.92,10.0,NNW,8.1,-,N/A,,Overcast,340,2012-10-15 14:52:00
9:59 AM,60,57,87,29.97,19,NE,2.2,,,,Overcast,50,2012-10-15 14:59:00
10:47 AM,66.2,55.4,68,30.26,10.0,NNE,11.5,-,N/A,,Overcast,30,2012-10-15 15:47:00
11:50 AM,66.2,55.4,68,30.24,10.0,NNE,9.2,-,N/A,,Overcast,30,2012-10-15 16:50:00
12:40 PM,66,57,66,29.95,19,NE,4.5,,,,Overcast,40,2012-10-15 17:40:00
12:52 PM,68.0,57.2,68,29.85,10.0,NNW,4.6,-,N/A,,Overcast,330,2012-10-15 17:52:00
1:46 PM,71.6,59.0,64,30.21,10.0,NNE,9.2,-,N/A,,Overcast,20,2012-10-15 18:46:00
2:43 PM,71.6,57.2,60,30.18,12.0,NNW,9.2,-,N/A,,Overcast,340,2012-10-15 19:43:00
3:40 PM,68,59,66,29.83,19,NE,2.2,,,Rain,Light Drizzle,40,2012-10-15 20:40:00
3:51 PM,68.0,60.8,78,29.78,10.0,NNW,9.2,-,N/A,,Overcast,340,2012-10-15 20:51:00
4:50 PM,68.0,60.8,78,30.16,10.0,SSE,4.6,-,N/A,,Overcast,160,2012-10-15 21:50:00
5:06 PM,66.2,60.8,83,30.16,10.0,SSW,9.2,-,N/A,Rain,Light Rain,200,2012-10-15 22:06:00
5:25 PM,62.6,60.8,94,30.16,10.0,East,9.2,-,N/A,,Overcast,100,2012-10-15 22:25:00
5:44 PM,62.6,59.0,88,30.16,12.0,NNE,6.9,-,N/A,,Overcast,20,2012-10-15 22:44:00
6:45 PM,63,59,82,29.81,19,ENE,2.2,,,,Overcast,60,2012-10-15 23:45:00
6:51 PM,60.8,59.0,94,29.83,12.0,South,2.3,-,N/A,,Overcast,170,2012-10-15 23:51:00
7:43 PM,60.8,59.0,94,30.16,8.0,Calm,Calm,-,N/A,,Overcast,0,2012-10-16 00:43:00
9:40 PM,60,58,90,29.86,6,Calm,Calm,,,,Mostly Cloudy,,2012-10-16 02:40:00
9:45 PM,59.0,57.2,94,30.21,8.0,Calm,Calm,-,N/A,,Overcast,0,2012-10-16 02:45:00